(63) Ausonia
ephemeris date magn radius delta ra dec elong phase
Today30 May 202510.82.096 AU1.475 AU21h17m-22°19'113.5°26.3°
Opposition2 Aug 20259.32.136 AU1.124 AU20h57m-22°28'174.9°2.4°
(63) Ausonia - 2025-05-30
astro.vanbuitenen.nl


 
-1 year
-1 month
-1 day
Now
+1 day
+1 month
+1 year

The interactive orbit chart above shows the body's path through the solar system and its position at the given date. Green and blue lines are shown perpendicular to the ecliptic plane: Green if the path is above the ecliptic plane, blue if it is below. (Left-click and drag to rotate the view; Right-click and drag to move the view; Use scroll wheel to zoom in our out.)

The orbital elements of Ausonia are:

            e (Eccentricity)                : 0.1282281
            a (Semimajor axis)              : 2.3949157
            i (Inclination)                 : 5.77292
            Ω (Longitude of ascending node) : 337.68535
            ω (Argument of perihelion)      : 295.67009
            M (Mean anomaly)                : 4.87062
            Epoch                           : 2025 May 05

            L (Longitude of perihelion)     : 273.46936
            B (Latitude of perihelion)      : -5.20149
            P (Orbital period in years)     : 3.71            
        

The light curve chart below shows the estimated development of the minor planet's magnitude.


The all-sky chart below shows the path of the minor planet over the same period as the light curve. The current position is marked yellow.





The following chart shows the path of the minor planet in the next few days. The field of view is optimized for (~10x50) binoculars and finderscopes. A more printer-friendly version of the same chart can be found below.




Ephemerides:
Date       Time       RA (2000)    DEC (2000)    delta   radius  elong  phase   PA    magn
2025-05-30 00:00 UT   21 17 12.9   -22 19 11     1.475    2.096  113.5   26.3   255   10.8 
2025-05-30 11:37 UT   21 17 33.5   -22 17 57     1.470    2.096  113.9   26.3   255   10.8 
2025-05-31 00:00 UT   21 17 55.1   -22 16 40     1.465    2.096  114.3   26.2   255   10.8 
2025-06-01 00:00 UT   21 18 35.6   -22 14 16     1.455    2.097  115.1   26.0   255   10.7 
2025-06-02 00:00 UT   21 19 14.3   -22 11 57     1.446    2.097  115.9   25.8   255   10.7 
2025-06-03 00:00 UT   21 19 51.2   -22 09 44     1.436    2.097  116.7   25.6   255   10.7 
2025-06-04 00:00 UT   21 20 26.2   -22 07 38     1.427    2.098  117.5   25.4   255   10.7 
2025-06-05 00:00 UT   21 20 59.5   -22 05 38     1.418    2.098  118.3   25.2   255   10.7 
2025-06-06 00:00 UT   21 21 30.8   -22 03 43     1.409    2.099  119.1   25.0   256   10.6 
2025-06-07 00:00 UT   21 22 00.3   -22 01 55     1.400    2.099  119.9   24.8   256   10.6 
2025-06-08 00:00 UT   21 22 27.9   -22 00 14     1.391    2.100  120.8   24.5   256   10.6 
2025-06-09 00:00 UT   21 22 53.6   -21 58 38     1.382    2.100  121.6   24.3   256   10.6 
2025-06-10 00:00 UT   21 23 17.3   -21 57 10     1.373    2.101  122.5   24.1   256   10.6 
2025-06-11 00:00 UT   21 23 39.1   -21 55 47     1.364    2.101  123.3   23.8   256   10.5 
2025-06-12 00:00 UT   21 23 58.9   -21 54 31     1.356    2.101  124.2   23.6   256   10.5 
2025-06-13 00:00 UT   21 24 16.8   -21 53 22     1.347    2.102  125.1   23.3   256   10.5 
2025-06-14 00:00 UT   21 24 32.6   -21 52 19     1.339    2.102  126.0   23.0   256   10.5 
2025-06-15 00:00 UT   21 24 46.4   -21 51 23     1.330    2.103  126.9   22.7   257   10.4 
2025-06-16 00:00 UT   21 24 58.1   -21 50 33     1.322    2.103  127.8   22.4   257   10.4 
2025-06-17 00:00 UT   21 25 07.8   -21 49 50     1.314    2.104  128.7   22.1   257   10.4 
2025-06-18 00:00 UT   21 25 15.3   -21 49 14     1.306    2.104  129.6   21.8   257   10.4 
2025-06-19 00:00 UT   21 25 20.8   -21 48 44     1.298    2.105  130.5   21.5   257   10.4 
2025-06-20 00:00 UT   21 25 24.2   -21 48 21     1.291    2.106  131.4   21.2   257   10.3 
2025-06-21 00:00 UT   21 25 25.5   -21 48 04     1.283    2.106  132.4   20.9   258   10.3 
2025-06-22 00:00 UT   21 25 24.6   -21 47 54     1.275    2.107  133.3   20.5   258   10.3 
2025-06-23 00:00 UT   21 25 21.6   -21 47 50     1.268    2.107  134.3   20.2   258   10.3 
2025-06-24 00:00 UT   21 25 16.4   -21 47 52     1.261    2.108  135.2   19.9   258   10.2 
2025-06-25 00:00 UT   21 25 09.1   -21 48 00     1.254    2.108  136.2   19.5   258   10.2 
2025-06-26 00:00 UT   21 24 59.6   -21 48 15     1.247    2.109  137.2   19.1   259   10.2 
2025-06-27 00:00 UT   21 24 48.0   -21 48 35     1.240    2.110  138.2   18.7   259   10.2 
2025-06-28 00:00 UT   21 24 34.3   -21 49 01     1.234    2.110  139.2   18.4   259   10.2 
2025-06-29 00:00 UT   21 24 18.4   -21 49 32     1.227    2.111  140.2   18.0   259   10.1 


    Terminology:
            
    delta:  distance between minor planet and earth in AU
    radius: distance between minor planet and sun in AU
    magn:   magnitude (brightness) estimate    
    ra:     right ascension in hours (24h = 360deg)
    dec:    declination in degrees
    elong:  elongation in degrees (angle sun-earth-minor planet)    
    phase:  phase angle in degrees (angle sun-minor planet-earth)        
    AU:     Astronomical Unit (mean distance between earth and sun: 149597870.7 km
    

Orbital elements provided by the MPC (Minor Planet Center).
Calculations by a modified version of AAPlus, a C# implementation of the AA+ project by PJ Naughter from the algorithms presented in the book "Astronomical Algorithms" by Jean Meeus.
NGC2000 dso catalog and star labels from VizieR as provided by the Strasbourg astronomical Data Center.
Tycho2 catalog from the ESO archive.